Powrót do katalogu

COSMOS 1275 DEB

AktywnyPO
NORAD 19026·DEBRIS·🇷🇺 Russia

Wystrzelony Jun 4, 1981 z Plesetsk Cosmodrome

Loading…

Następne Przeloty (najbliższe 24 godziny)

TLE

ŚwieżeSource: Space-Track

Epoka: Sep 12, 2026, 22:57 UTC

1 19026U 81053MD  26255.95669270  .00000967  00000-0  88476-3 0  9997
2 19026  83.1619  77.5452 0112510 209.0028 305.5681 13.79340418 63602

Śledź COSMOS 1275 DEB w czasie rzeczywistym z AllMySat

Download on the App Store